Regional Weather Roundup
Issued by NWS Grand Forks, ND

Home | Current Version | Previous Version | Graphics & Text | Print | Product List | Glossary On
Versions: 1 2 3 4 5 6 7 8 9 10 11 12 13 14 15 16 17 18 19 20 21 22 23 24 25 26 27 28 29 30 31 32 33 34 35 36 37 38 39 40 41 42 43 44 45 46 47 48 49 50
000
ASUS43 KFGF 210631
RWRFGF
PRAIRIE TO PINES  WEATHER ROUNDUP
NATIONAL WEATHER SERVICE EASTERN NORTH DAKOTA/GRAND FORKS ND
100 AM CDT TUE APR 21 2015

 **SATELLITE DATA USED TO AUGMENT SKY COVER AT AUTOMATED STATIONS**
 *****  WEATHER ACROSS EASTERN NORTH DAKOTA  *****

CITY           SKY/WX    TMP DP  RH WIND       PRES   REMARKS
GRAND FORKS    CLOUDY    34  27  75 NW18G30   29.63S WCI  23
6HR MIN TEMP:  33; 6HR MAX TEMP:  37; 6HR PCP: TRACE;

GRAND FRKS AFB CLOUDY    34  27  75 N17       29.63F WCI  23
GRAND FRKS NWS   N/A     32 N/A N/A NW16        N/A  WCI  21
DEVILS LAKE    CLOUDY    34  23  64 N21G28    29.70S WCI  22
6HR MIN TEMP:  34; 6HR MAX TEMP:  43;

FARGO          CLOUDY    34  28  79 NW22G29   29.64S WCI  22
WAHPETON ARPT  CLOUDY    34  28  80 NW12      29.64F
$$

 ***** WEATHER ACROSS CENTRAL AND WESTERN NORTH DAKOTA  *****

CITY           SKY/WX    TMP DP  RH WIND       PRES   REMARKS
BISMARCK       MOCLDY    36  15  42 W7        29.78S
6HR MIN TEMP:  32; 6HR MAX TEMP:  51;

MINOT          CLOUDY    36  21  54 N9        29.81R
6HR MIN TEMP:  36; 6HR MAX TEMP:  49;

JAMESTOWN      FAIR      31  24  75 NW14      29.71S WCI  21
6HR MIN TEMP:  31; 6HR MAX TEMP:  44;

MINOT AFB      FAIR      36  23  58 N8        29.80R
GARRISON         N/A     39  20  46 NE13G22   29.78R
WILLISTON      CLOUDY    36  18  48 NE8       29.83R
6HR MIN TEMP:  27; 6HR MAX TEMP:  53;

DICKINSON      CLEAR     32  15  49 W6        29.77F
6HR MIN TEMP:  30; 6HR MAX TEMP:  49;

HETTINGER      CLEAR     27  15  61 CALM      29.81F
6HR MIN TEMP:  25; 6HR MAX TEMP:  48;

$$

 *****  OTHER AIRPORT OBSERVATIONS IN OUR AREA  *****

CITY           SKY/WX    TMP DP  RH WIND       PRES   REMARKS
WALHALLA       LGT RAIN  32  32 100 N17       29.67R WCI  21
GRAFTON AIRPOR CLOUDY    34  30  86 NW25G31   29.64S WCI  21
VALLEY CITY AR CLOUDY    32  28  86 NW17      29.68S WCI  21
CANDO          CLOUDY    32  25  74 N15G22    29.73R WCI  22
CAVALIER APRT  MOCLDY    32  28  86 N20G29    29.65R WCI  20
GWINNER        PTCLDY    36  28  75 NW20      29.70R
SHEYENNE NWR     N/A     36  25  64 N15       29.95
ROLLA          CLOUDY    32  25  74 N24G30    29.74R WCI  19
 ***** THE ABOVE OBSERVATIONS ARE NON NWS ARE NOT QUALITY
       CONTROLLED AND MAY MIS-REPORT RAIN FOR SNOW...
$$

  *****  WEATHER ACROSS NORTHERN MINNESOTA  *****

CITY           SKY/WX    TMP DP  RH WIND       PRES   REMARKS
FLAG ISLAND    LGT SNOW  32  28  86 NW23G29   29.46R WCI  19
WARROAD        CLOUDY    30  27  86 NW14G24   29.49S WCI  20
ROSEAU         MOCLDY    32  27  80 NW16G23   29.52R WCI  21
HALLOCK        CLOUDY    34  28  80 NW22      29.60R WCI  22
THF RVR FALLS  CLOUDY    32  27  80 NW20G25   29.56S WCI  20
6HR MIN TEMP:  30; 6HR MAX TEMP:  34;

BAUDETTE       LGT SNOW  31  28  89 NW18G29   29.43S FOG     WCI  19
6HR MIN TEMP:  31; 6HR MAX TEMP:  33; 6HR PCP: TRACE;

WASKISH        CLOUDY    30  28  93 W16G23    29.45S WCI  19
CROOKSTON      CLOUDY    34  28  80 NW21G28   29.61S WCI  22
$$
  *****  WEATHER ACROSS CENTRAL AND WEST MINNESOTA  *****

CITY           SKY/WX    TMP DP  RH WIND       PRES   REMARKS
FOSSTON        LGT SNOW  28  27  93 NW20G25   29.55S WCI  15
BEMIDJI        FLURRIES  29  26  88 NW17G25   29.49S WCI  17
PARK RAPIDS    CLOUDY    36  24  62 NW24G30   29.50S
6HR MIN TEMP:  32; 6HR MAX TEMP:  39; 6HR PCP: TRACE;

ELBOW LAKE     CLOUDY    34  31  88 NW16G24   29.60F WCI  23
6HR MIN TEMP:  33; 6HR MAX TEMP:  36;

WADENA         FLURRIES  30  25  80 NW21G31   29.53S WCI  17
DETROIT LAKES  CLOUDY    32  28  86 NW17G29   29.58S WCI  21
MOORHEAD       CLOUDY    34  27  75 NW20      29.64S WCI  22
FERGUS FALLS   CLOUDY    32  27  80 N18G29    29.64R WCI  20
MORRIS MN      CLOUDY    34  28  80 NW17G23   29.62R WCI  23
STAPLES        CLOUDY    30  27  86 NW16G22   29.52S WCI  19
$$
  *****  WEATHER ELSEWHERE ACROSS MINNESOTA  *****

CITY           SKY/WX    TMP DP  RH WIND       PRES   REMARKS
DULUTH         LGT SNOW  32  28  85 W21G29    29.34S FOG     WCI  20
6HR MIN TEMP:  33; 6HR MAX TEMP:  34; 6HR PCP:  0.01;

INTRNTL FALLS  LGT SNOW  31  29  92 NW12      29.37R FOG     WCI  22
6HR MIN TEMP:  31; 6HR MAX TEMP:  33; 6HR PCP:  0.03;

ELY            LGT SNOW  32  30  93 W8        29.29S WCI  25
CLOQUET        CLOUDY    32  28  86 W14G21    29.38S WCI  22
WHEATON        CLOUDY    34  27  75 NW15G23   29.67S WCI  24
BRAINERD       FLURRIES  32  25  75 NW20G31   29.50R WCI  20
6HR MIN TEMP:  33; 6HR MAX TEMP:  37; 6HR PCP: TRACE;

HIBBING        FLURRIES  31  26  82 NW14G29   29.37S WCI  21
6HR MIN TEMP:  31; 6HR MAX TEMP:  33; 6HR PCP: TRACE;

ALEXANDRIA     CLOUDY    33  27  78 NW23G33   29.58S WCI  21
6HR MIN TEMP:  33; 6HR MAX TEMP:  37; 6HR PCP: TRACE;

SAINT CLOUD    CLOUDY    35  25  66 NW22G32   29.53S WCI  23
6HR MIN TEMP:  35; 6HR MAX TEMP:  39; 6HR PCP: TRACE;

MINNEAPOLIS    CLOUDY    36  30  79 W12       29.54S
6HR MIN TEMP:  36; 6HR MAX TEMP:  42; 6HR PCP:  0.02;

$$

  *****  WEATHER ACROSS SOUTH DAKOTA  *****

CITY           SKY/WX    TMP DP  RH WIND       PRES   REMARKS
SIOUX FALLS    FAIR      33  20  58 W6        29.74S
6HR MIN TEMP:  32; 6HR MAX TEMP:  51;

BROOKINGS      FAIR      30  25  80 W9        29.71S WCI  22
WATERTOWN      FAIR      35  27  72 W10       29.68S
6HR MIN TEMP:  35; 6HR MAX TEMP:  44;

HURON          CLEAR     26  15  63 W8        29.76S WCI  18
6HR MIN TEMP:  26; 6HR MAX TEMP:  52;

SISSETON         N/A     35  28  75 NW16      29.66S
ABERDEEN       CLEAR     33  18  53 W9        29.72F
6HR MIN TEMP:  26; 6HR MAX TEMP:  51;

MITCHELL       CLEAR     34  11  38 W7        29.79R
PIERRE         CLEAR     35  22  58 NW12      29.81S
6HR MIN TEMP:  34; 6HR MAX TEMP:  53;

MOBRIDGE       CLEAR     33  18  53 NW7       29.76S
RAPID CITY     CLEAR     33  21  61 NW7       29.89
6HR MIN TEMP:  31; 6HR MAX TEMP:  52;

$$

  *****  SOME WEATHER IN NEARBY STATES *****

CITY           SKY/WX    TMP DP  RH WIND       PRES   REMARKS
GLASGOW MT     PTCLDY    37  21  52 SE9       29.76S
6HR MIN TEMP:  36; 6HR MAX TEMP:  58;

GREAT FALLS MT CLEAR     44  27  51 SE5       29.84S
6HR MIN TEMP:  44; 6HR MAX TEMP:  65;

CHEYENNE WY    MOCLDY    32  25  75 W6        29.95S
6HR MIN TEMP:  32; 6HR MAX TEMP:  48;

SCOTTSBLUFF NE CLEAR     34  27  75 W6        29.92R
6HR MIN TEMP:  34; 6HR MAX TEMP:  57;

OMAHA NE       FAIR      45  21  38 W10       29.80R
6HR MIN TEMP:  45; 6HR MAX TEMP:  57;

DES MOINES IA  FAIR      39  23  52 W6        29.73S
6HR MIN TEMP:  38; 6HR MAX TEMP:  55;

DAVENPORT IA   FAIR      38  31  76 W13       29.68F
6HR MIN TEMP:  35; 6HR MAX TEMP:  43; 6HR PCP:  0.01;

CHICAGO IL     MOCLDY    41  33  73 W12       29.61S
6HR MIN TEMP:  41; 6HR MAX TEMP:  46;

EAU CLAIRE WI  CLOUDY    36  29  75 W15G23    29.47S
6HR MIN TEMP:  36; 6HR MAX TEMP:  40; 6HR PCP: TRACE;

LA CROSSE WI   CLOUDY    41  31  67 W15       29.52F
6HR MIN TEMP:  41; 6HR MAX TEMP:  44;

$$

  *****  SOME NATIONAL WEATHER *****

CITY           SKY/WX    TMP DP  RH WIND       PRES   REMARKS
LA GUARDIA NY  LGT RAIN  54  52  94 SW3       29.56F VSB 1
6HR MIN TEMP:  50; 6HR MAX TEMP:  54; 6HR PCP:  0.11;

RALEIGH NC     MOCLDY    63  61  94 W6        29.71S
6HR MIN TEMP:  62; 6HR MAX TEMP:  68; 6HR PCP:  0.71;

ATLANTA GA     FAIR      57  45  64 NW12      29.90R
6HR MIN TEMP:  57; 6HR MAX TEMP:  71;

NEW ORLEANS LA MOCLDY    66  49  54 N5        29.97S
6HR MIN TEMP:  66; 6HR MAX TEMP:  72;

OKLAHOMA CITY  CLOUDY    50  40  68 S3        29.99R
6HR MIN TEMP:  48; 6HR MAX TEMP:  65;

ALBUQUERQUE NM MOCLDY    58  23  26 VRB5      29.98R
6HR MIN TEMP:  55; 6HR MAX TEMP:  71;

SALT LAKE CITY CLEAR     53  26  35 S7        29.87F
6HR MIN TEMP:  53; 6HR MAX TEMP:  68;

LOS ANGELES CA MOCLDY    57  52  83 SW3       29.91R
6HR MIN TEMP:  57; 6HR MAX TEMP:  61;




USA.gov is the U.S. government's official web portal to all federal, state and local government web resources and services.